Wind_Speed
39 39 38 38 38 38 37 36 36 35 35 33 32 31 31 32 31 31 28 25 24 23 22 22 21 21 20 20 19 19 19 19 18 18 18 17 16 15 14 13 13 12 12 11 10 9 8 8 8
40 40 40 39 39 38 37 38 38 37 36 35 34 34 34 34 33 33 30 28 27 26 25 24 24 23 22 22 21 20 20 19 19 19 19 19 18 17 16 16 15 14 14 13 12 11 11 10 9
41 41 41 40 39 38 38 39 39 38 37 36 36 37 37 37 35 34 33 31 30 29 28 27 26 25 24 23 23 22 22 21 21 20 20 20 19 19 18 17 17 16 15 15 14 14 13 12 11
42 42 42 41 39 38 39 40 38 39 39 37 38 39 39 38 37 37 36 35 34 32 31 30 29 27 26 25 24 24 23 23 22 22 21 21 20 20 20 20 19 18 17 17 16 16 15 14 13
44 43 43 41 40 40 40 40 38 39 39 38 39 39 39 39 39 38 38 37 36 35 34 33 32 31 29 28 27 26 25 24 24 23 23 23 22 22 21 21 21 20 20 19 18 18 17 16 16
43 43 42 41 40 40 40 40 39 39 39 39 39 40 40 40 40 39 39 39 39 38 37 36 35 34 33 31 30 28 27 26 25 25 24 24 23 23 23 22 22 22 22 21 20 19 19 19 18
42 41 41 40 40 40 40 39 39 39 39 39 39 40 40 40 40 39 40 40 40 40 40 39 38 37 36 35 33 32 30 29 28 27 26 25 25 24 24 24 24 23 23 23 22 22 21 21 20
41 41 41 40 40 40 39 38 37 38 39 39 39 39 40 39 39 39 39 40 41 41 41 41 41 40 39 38 36 34 33 32 31 30 29 28 26 26 25 25 26 25 25 24 24 24 24 23 23
40 41 40 41 41 40 40 39 37 38 38 38 39 40 40 39 40 40 40 40 41 41 42 42 42 42 41 41 39 38 36 35 34 33 31 30 29 28 28 27 27 27 27 26 26 25 25 25 25
40 40 40 41 41 41 41 40 39 39 39 39 40 40 41 40 41 41 40 41 41 41 42 42 43 43 43 42 41 41 39 39 37 36 35 33 32 32 31 30 29 29 28 28 28 28 28 27 26
40 40 40 41 41 41 41 40 40 40 40 41 41 41 42 42 42 42 42 42 43 43 43 43 44 44 44 44 43 43 42 41 40 39 38 36 36 35 33 33 32 31 30 30 30 30 30 29 29
39 40 40 40 41 41 41 40 40 41 41 41 41 41 42 42 43 43 44 44 45 45 45 45 45 46 45 45 45 44 44 43 43 42 40 39 39 38 36 35 35 34 33 32 32 32 32 31 31
38 39 39 39 40 40 41 41 41 41 42 42 42 42 43 43 43 44 44 45 46 46 47 46 46 47 47 47 47 46 45 45 44 43 42 42 41 40 39 38 37 37 36 35 34 33 33 33 33
36 37 38 39 39 39 40 40 41 41 42 43 43 43 43 43 44 44 45 45 46 47 48 48 48 48 48 48 48 47 47 46 46 45 44 43 42 41 41 40 39 39 38 37 37 36 36 35 35
33 34 36 37 38 38 39 40 40 40 41 42 43 43 43 44 45 45 46 46 47 48 49 49 50 49 49 49 49 49 48 48 47 46 46 45 44 44 43 42 41 41 40 40 39 38 38 37 37
30 32 34 35 36 36 37 37 37 38 40 41 43 44 45 45 45 46 46 47 48 48 49 50 51 51 51 51 51 51 51 50 49 48 48 47 46 46 45 44 43 43 43 42 41 40 39 38 39
27 29 30 32 33 34 35 35 36 37 38 39 41 43 44 45 46 47 47 48 48 48 49 50 51 51 51 52 52 52 52 52 51 51 50 50 49 48 48 47 45 44 44 44 43 42 41 41 40
24 25 27 28 30 32 33 34 34 35 37 38 39 40 42 43 44 46 47 48 48 49 49 50 50 51 52 52 52 52 52 53 53 52 52 52 52 51 50 49 47 45 45 44 44 43 43 43 43
22 23 25 27 28 30 31 32 33 34 36 37 38 39 39 40 41 43 45 46 47 48 49 50 50 51 52 52 52 52 52 52 52 53 53 53 53 52 52 52 50 48 47 46 45 45 45 45 44
19 20 22 24 25 27 28 29 31 32 34 35 36 37 37 38 39 40 40 42 44 45 46 48 49 50 50 51 51 51 51 52 52 53 53 53 54 54 53 53 52 51 50 49 48 47 47 47 45
15 16 17 19 21 23 25 26 28 30 32 32 33 34 34 35 36 36 36 37 38 40 42 44 46 47 48 49 50 51 50 50 51 52 53 54 54 54 55 54 53 53 53 52 51 49 48 47 46
12 13 14 15 17 18 20 22 23 26 27 28 28 29 30 31 32 32 33 33 34 35 37 39 42 44 47 48 49 50 50 49 49 49 51 53 55 54 54 53 53 53 52 51 51 50 50 49 48
10 10 12 13 14 15 16 18 18 20 22 23 24 24 24 25 27 28 29 30 30 32 34 36 38 40 42 44 46 47 47 48 48 47 48 49 50 50 50 51 51 51 51 51 52 51 51 50 49
8 9 10 11 11 12 13 14 14 14 16 18 19 20 21 21 22 23 25 26 27 28 30 32 34 36 38 39 41 42 43 43 43 43 43 44 46 47 47 47 47 48 49 50 51 52 52 50 49
6 7 8 9 10 10 10 12 13 13 13 14 15 17 18 18 19 20 21 22 23 24 25 26 28 30 32 33 35 37 39 39 40 41 41 42 44 45 45 46 46 46 48 48 49 50 50 50 49
4 5 6 7 8 9 8 10 10 11 11 11 12 13 14 14 15 16 16 17 18 19 20 21 23 25 27 29 31 33 36 36 37 39 39 40 42 44 45 46 46 45 46 47 49 50 49 49 49
2 3 4 5 6 6 7 8 8 8 8 9 10 10 10 11 11 12 12 13 14 16 17 18 19 20 22 24 26 28 30 32 33 36 37 39 40 41 41 42 43 43 44 45 46 48 48 48 47
2 3 4 4 4 6 7 7 8 7 7 8 9 9 8 8 9 9 10 11 12 13 13 14 15 16 18 20 21 23 24 26 28 32 35 36 37 38 39 39 40 41 43 43 44 44 44 45 46
4 4 4 4 5 5 6 7 8 7 8 8 8 8 7 7 7 7 8 8 8 8 8 10 11 13 14 15 16 18 18 20 22 25 27 29 31 32 34 35 36 37 39 40 40 41 42 42 43
4 4 5 5 5 6 6 7 8 7 8 8 8 7 8 8 7 6 7 6 7 7 6 7 8 8 10 11 13 14 15 16 17 19 21 24 27 29 30 32 32 33 34 35 36 37 39 40 41
Wind_Direction
241 241 241 241 242 243 244 244 244 243 243 243 244 244 244 246 247 250 253 252 250 250 250 251 251 251 250 250 250 251 251 252 253 254 254 254 254 255 258 260 259 259 261 261 260 260 261 260 256
240 241 241 241 242 243 244 245 244 243 243 244 245 245 244 246 247 250 251 251 251 250 250 251 251 251 250 250 250 250 251 253 253 254 254 254 254 255 256 258 260 260 261 263 262 261 261 261 259
240 240 240 241 242 243 244 244 244 245 243 243 244 245 245 246 247 249 250 250 250 251 251 251 251 251 251 251 251 251 251 253 254 254 255 256 256 256 256 257 258 260 261 262 263 262 261 261 261
239 239 239 240 241 241 243 245 245 246 245 244 245 245 246 246 247 249 249 249 250 250 250 251 251 251 251 251 252 252 253 253 254 254 256 257 257 257 257 257 258 260 261 262 262 263 263 263 263
238 238 239 240 240 240 242 245 246 247 246 245 246 246 246 246 247 248 249 249 249 250 250 250 251 251 251 251 252 253 254 254 254 255 255 256 258 258 258 258 258 259 260 262 262 263 264 264 263
236 237 238 238 239 240 241 243 244 246 247 247 247 247 247 247 246 247 249 249 249 249 250 250 251 251 252 252 252 253 254 255 255 255 256 256 257 258 259 259 259 259 260 261 262 263 264 265 263
235 235 237 237 238 239 241 241 243 245 247 247 247 248 247 247 248 248 248 249 249 249 249 250 250 251 252 252 252 252 253 254 255 256 256 256 256 257 259 258 259 259 260 261 262 263 263 265 265
233 235 235 236 237 239 240 240 242 244 246 247 248 249 248 248 249 248 248 248 248 249 249 250 250 251 251 252 253 252 253 253 254 255 255 256 256 256 257 258 258 259 260 261 262 263 264 264 265
231 233 234 235 237 239 240 241 242 245 247 248 249 250 250 249 250 249 248 248 248 249 249 250 250 251 251 252 252 252 253 254 254 255 255 255 256 256 257 258 258 259 260 261 262 263 265 265 264
230 232 234 235 237 239 240 242 243 245 247 249 250 250 251 250 250 250 250 249 249 249 249 249 250 251 251 251 252 252 253 253 254 255 255 256 256 256 257 258 258 259 259 261 262 262 264 265 265
230 232 234 236 239 241 243 244 245 247 249 250 251 251 251 251 251 251 251 250 250 250 250 250 250 251 251 252 252 252 253 253 253 253 254 256 256 256 256 257 258 258 259 261 262 263 263 264 265
231 233 235 237 240 242 244 246 247 248 250 251 252 252 252 253 252 252 252 251 250 250 250 250 251 251 251 252 253 253 253 253 254 253 254 255 256 257 257 256 256 257 258 260 262 264 263 264 266
231 234 236 238 242 244 245 247 248 250 251 252 253 253 253 253 254 254 254 253 252 251 251 251 251 252 251 252 252 253 253 253 254 254 254 255 255 256 256 256 256 257 258 259 260 263 265 265 266
233 235 237 239 242 245 246 247 249 250 252 253 254 255 255 255 255 255 255 255 253 251 251 251 251 252 252 252 252 252 252 252 253 253 254 254 255 255 256 255 256 257 258 258 259 262 264 265 266
235 237 238 240 242 245 247 249 250 251 253 254 255 255 255 256 256 257 256 256 255 253 251 250 250 250 251 251 251 251 252 251 252 252 253 253 255 255 256 256 257 257 258 259 259 261 263 264 265
235 237 239 240 243 245 248 250 250 252 254 255 256 256 257 257 257 257 257 257 256 255 252 250 249 249 250 250 250 250 250 250 251 252 252 252 253 255 256 257 257 257 258 259 259 259 261 263 264
236 238 240 242 245 247 250 251 252 254 255 257 257 258 259 258 258 259 258 258 257 256 253 251 249 249 249 250 250 250 250 250 250 251 252 252 252 253 254 256 256 257 258 258 258 259 260 262 264
238 242 244 246 247 249 252 254 256 256 257 258 259 261 261 261 260 260 259 258 257 256 253 251 249 249 248 249 249 250 250 251 250 251 251 251 251 252 253 253 254 256 258 258 258 259 261 263 264
239 243 246 249 251 253 254 256 257 260 261 261 262 263 263 262 261 261 260 259 258 255 253 251 249 248 248 249 249 249 249 250 251 250 250 250 250 251 252 252 254 254 256 257 258 259 260 263 265
240 246 249 252 254 256 256 258 260 262 263 264 265 265 264 263 261 261 261 260 259 256 254 251 249 248 248 248 248 249 249 250 250 250 250 250 250 251 251 252 253 254 255 256 257 258 259 261 263
240 246 253 257 259 261 263 263 263 265 266 266 267 266 264 263 262 261 260 260 259 257 254 252 250 248 248 248 247 249 250 251 251 251 250 250 250 251 251 252 253 254 254 255 256 258 259 260 262
245 254 258 261 265 268 270 269 267 269 268 267 268 267 265 263 262 261 260 261 259 256 254 252 250 249 248 248 248 249 251 252 252 252 251 251 251 251 251 252 252 253 254 254 256 258 258 258 260
252 260 263 267 272 273 278 279 275 273 272 272 268 267 266 265 263 262 262 263 260 257 255 253 251 249 248 248 249 249 250 251 251 251 252 251 250 249 250 250 252 252 253 254 256 256 257 257 258
261 267 269 270 276 278 282 285 286 285 284 278 272 270 269 269 267 267 266 265 263 259 255 253 253 251 249 248 248 247 249 249 249 250 252 251 249 247 247 249 251 252 253 253 254 255 256 257 258
269 273 275 276 281 288 293 294 296 297 292 284 280 275 273 273 271 269 268 266 263 260 258 255 253 251 249 248 248 248 247 247 248 249 251 252 249 247 246 248 250 252 253 253 255 256 257 257 259
288 284 283 282 287 296 302 307 308 305 298 292 289 283 278 276 274 271 270 267 265 261 260 259 256 252 251 251 250 249 248 248 248 249 250 250 249 248 249 250 250 252 254 256 256 257 256 257 258
305 298 297 295 301 306 315 321 321 319 314 307 304 299 288 281 277 274 275 272 268 265 262 261 257 255 253 252 251 250 249 250 249 250 251 251 249 249 249 250 250 251 254 257 258 256 256 256 258
327 313 310 309 313 313 322 330 330 326 329 332 324 319 310 298 296 292 285 283 278 271 266 262 256 254 253 250 249 248 247 249 251 252 253 251 249 249 249 251 252 253 255 256 256 256 256 257 259
342 334 328 324 317 318 327 334 333 332 337 340 340 340 336 321 316 311 301 293 285 275 269 263 261 257 253 250 247 245 249 253 256 254 253 252 251 250 252 254 255 255 256 256 257 257 257 259 261
353 345 342 337 328 326 331 338 335 338 342 343 344 348 349 341 330 321 316 308 296 290 278 270 265 258 255 250 248 245 251 257 258 256 254 251 251 253 253 254 255 255 256 258 260 260 259 260 261
Height
5789 5791 5795 5798 5802 5805 5809 5813 5815 5818 5821 5824 5827 5829 5832 5833 5836 5840 5842 5844 5846 5848 5850 5851 5853 5854 5855 5856 5858 5859 5860 5861 5862 5864 5865 5866 5867 5868 5869 5870 5871 5871 5872 5872 5872 5872 5872 5873 5873
5781 5784 5788 5791 5795 5799 5804 5806 5809 5811 5815 5819 5822 5825 5827 5828 5831 5834 5837 5840 5842 5844 5846 5848 5849 5851 5852 5853 5854 5856 5857 5858 5860 5861 5862 5863 5865 5866 5867 5868 5869 5869 5870 5870 5871 5871 5871 5871 5872
5773 5777 5781 5785 5789 5794 5797 5798 5802 5805 5809 5813 5816 5818 5821 5823 5827 5829 5832 5835 5837 5840 5842 5844 5845 5847 5849 5850 5851 5853 5854 5855 5857 5858 5859 5861 5862 5863 5864 5865 5866 5867 5868 5868 5869 5869 5869 5870 5870
5765 5769 5774 5779 5783 5787 5788 5791 5796 5798 5803 5807 5809 5812 5815 5819 5822 5824 5827 5829 5832 5835 5837 5839 5841 5843 5845 5846 5848 5849 5851 5852 5853 5855 5856 5858 5859 5860 5861 5862 5864 5865 5865 5866 5866 5867 5867 5868 5868
5757 5762 5767 5772 5776 5779 5781 5785 5789 5792 5796 5800 5803 5805 5809 5812 5815 5818 5821 5824 5827 5829 5832 5834 5836 5838 5840 5842 5844 5845 5847 5848 5850 5851 5853 5854 5855 5857 5858 5859 5860 5861 5862 5863 5864 5864 5865 5865 5866
5749 5754 5760 5765 5769 5772 5774 5778 5783 5785 5789 5793 5796 5799 5803 5806 5809 5812 5815 5818 5821 5823 5826 5828 5831 5833 5835 5838 5840 5841 5843 5844 5846 5847 5849 5850 5852 5853 5855 5855 5857 5858 5859 5860 5861 5861 5862 5862 5863
5743 5747 5752 5758 5761 5764 5768 5772 5776 5779 5782 5785 5789 5792 5795 5799 5803 5806 5808 5811 5814 5817 5819 5822 5825 5827 5830 5832 5834 5836 5838 5840 5842 5843 5845 5846 5848 5849 5850 5852 5853 5854 5855 5856 5857 5858 5858 5859 5859
5734 5740 5745 5749 5753 5756 5760 5765 5769 5772 5775 5779 5782 5785 5788 5793 5796 5799 5801 5804 5807 5810 5812 5815 5818 5821 5823 5826 5828 5831 5833 5835 5837 5838 5840 5842 5843 5845 5846 5847 5849 5850 5851 5852 5853 5854 5855 5855 5856
5726 5733 5738 5742 5745 5749 5753 5758 5762 5765 5768 5772 5774 5778 5782 5786 5788 5791 5794 5797 5800 5802 5805 5808 5811 5814 5816 5819 5822 5825 5827 5829 5831 5833 5835 5836 5838 5840 5841 5843 5844 5845 5846 5848 5849 5849 5850 5851 5852
5719 5725 5730 5734 5738 5742 5746 5751 5755 5759 5761 5764 5767 5770 5774 5777 5780 5783 5787 5790 5792 5795 5798 5800 5803 5806 5809 5812 5815 5817 5820 5822 5825 5827 5829 5831 5833 5834 5836 5837 5839 5840 5841 5843 5844 5845 5845 5846 5847
5712 5718 5722 5727 5731 5735 5740 5744 5748 5751 5754 5756 5760 5763 5766 5769 5772 5775 5778 5781 5785 5787 5790 5793 5795 5798 5801 5804 5807 5810 5813 5815 5818 5820 5822 5824 5826 5828 5830 5832 5833 5835 5836 5837 5838 5839 5840 5841 5842
5706 5711 5716 5720 5725 5729 5733 5737 5740 5743 5746 5748 5751 5754 5758 5760 5763 5766 5769 5772 5776 5778 5781 5784 5787 5790 5793 5796 5799 5802 5805 5807 5810 5813 5815 5817 5819 5821 5823 5825 5827 5828 5830 5831 5833 5834 5834 5836 5836
5700 5705 5710 5714 5718 5722 5725 5729 5732 5736 5738 5740 5743 5746 5749 5751 5754 5756 5759 5762 5766 5769 5772 5775 5778 5781 5784 5787 5790 5793 5796 5799 5802 5805 5807 5810 5812 5814 5816 5818 5820 5822 5823 5825 5826 5827 5828 5829 5830
5695 5699 5704 5707 5711 5714 5718 5721 5725 5728 5729 5731 5734 5737 5739 5742 5744 5747 5749 5752 5755 5758 5761 5764 5768 5771 5774 5778 5781 5784 5787 5790 5793 5796 5799 5801 5804 5806 5808 5810 5812 5814 5816 5818 5819 5821 5822 5823 5824
5689 5694 5698 5701 5704 5707 5711 5714 5717 5719 5721 5723 5725 5728 5730 5732 5734 5737 5739 5742 5744 5747 5750 5753 5757 5761 5764 5767 5771 5774 5777 5781 5784 5787 5790 5793 5795 5798 5800 5802 5804 5806 5808 5810 5812 5813 5814 5816 5817
5685 5688 5692 5695 5698 5701 5705 5707 5709 5710 5712 5714 5716 5718 5720 5723 5724 5726 5728 5731 5733 5735 5739 5742 5745 5749 5753 5757 5760 5763 5767 5770 5774 5777 5780 5783 5786 5788 5791 5793 5796 5798 5800 5802 5804 5805 5807 5808 5809
5680 5684 5687 5690 5692 5695 5697 5700 5702 5703 5704 5706 5707 5709 5711 5713 5714 5716 5717 5719 5721 5724 5727 5730 5733 5738 5741 5745 5749 5752 5756 5759 5763 5766 5770 5773 5776 5779 5781 5784 5787 5789 5791 5793 5795 5797 5798 5800 5801
5677 5680 5682 5685 5687 5689 5691 5693 5695 5695 5696 5698 5699 5700 5701 5703 5704 5705 5706 5708 5710 5712 5715 5718 5722 5726 5729 5733 5737 5741 5744 5748 5752 5755 5759 5762 5765 5768 5771 5774 5777 5780 5782 5784 5786 5788 5789 5791 5792
5674 5676 5678 5680 5682 5683 5685 5686 5688 5688 5689 5690 5691 5691 5692 5693 5693 5694 5695 5697 5698 5700 5703 5706 5709 5713 5717 5721 5726 5730 5734 5737 5740 5744 5747 5750 5754 5757 5761 5764 5767 5770 5773 5775 5777 5778 5780 5782 5783
5671 5673 5674 5676 5677 5678 5679 5680 5681 5682 5682 5683 5683 5683 5683 5684 5684 5684 5685 5686 5687 5688 5690 5693 5697 5701 5705 5709 5714 5718 5721 5725 5728 5732 5735 5738 5742 5746 5749 5753 5756 5760 5762 5764 5767 5768 5770 5772 5773
5669 5670 5671 5672 5673 5673 5674 5675 5675 5675 5675 5676 5675 5675 5675 5675 5675 5676 5676 5677 5677 5678 5679 5682 5685 5689 5693 5697 5702 5706 5709 5713 5716 5720 5723 5726 5729 5734 5738 5741 5745 5748 5751 5753 5756 5758 5760 5762 5763
5667 5668 5668 5669 5669 5670 5670 5670 5671 5670 5669 5669 5668 5668 5668 5667 5667 5668 5668 5669 5669 5669 5670 5672 5674 5678 5681 5686 5690 5694 5698 5702 5705 5708 5711 5714 5718 5721 5725 5730 5733 5736 5739 5742 5744 5747 5749 5751 5752
5665 5665 5666 5666 5666 5667 5666 5666 5667 5665 5664 5663 5663 5662 5661 5661 5661 5661 5661 5661 5661 5661 5662 5664 5665 5668 5671 5674 5678 5683 5686 5690 5693 5696 5699 5702 5706 5710 5714 5717 5721 5724 5727 5730 5733 5735 5737 5739 5741
5663 5664 5664 5664 5664 5665 5664 5663 5663 5661 5660 5659 5658 5657 5657 5656 5656 5655 5655 5655 5655 5654 5655 5656 5658 5660 5662 5664 5668 5672 5676 5679 5682 5686 5689 5692 5695 5699 5702 5706 5709 5712 5716 5718 5721 5723 5726 5728 5730
5662 5663 5663 5663 5662 5663 5662 5661 5661 5658 5657 5656 5655 5654 5653 5652 5651 5651 5650 5650 5649 5649 5649 5650 5651 5653 5654 5656 5659 5663 5666 5669 5673 5676 5679 5682 5685 5689 5692 5695 5699 5702 5705 5707 5709 5712 5714 5717 5719
5661 5662 5662 5662 5661 5661 5660 5659 5659 5656 5655 5653 5652 5651 5650 5649 5648 5647 5646 5645 5645 5645 5645 5645 5646 5647 5648 5650 5653 5655 5658 5661 5664 5667 5669 5672 5675 5679 5682 5684 5687 5691 5694 5696 5698 5701 5703 5706 5707
5661 5661 5661 5661 5660 5660 5659 5658 5657 5655 5653 5652 5650 5649 5647 5646 5645 5644 5643 5642 5641 5641 5641 5641 5641 5642 5643 5644 5646 5648 5650 5653 5655 5658 5660 5663 5666 5669 5672 5674 5677 5680 5683 5685 5688 5690 5692 5694 5696
5661 5661 5661 5660 5659 5658 5658 5657 5656 5654 5652 5651 5649 5647 5646 5644 5643 5642 5641 5640 5639 5638 5638 5638 5638 5638 5639 5639 5640 5642 5644 5646 5648 5650 5652 5654 5657 5660 5662 5665 5667 5670 5672 5675 5676 5679 5681 5683 5685
5662 5661 5660 5659 5659 5658 5657 5659 5655 5653 5652 5650 5649 5647 5645 5643 5642 5641 5639 5638 5637 5636 5636 5635 5635 5635 5636 5636 5637 5638 5640 5641 5642 5643 5644 5646 5648 5650 5653 5656 5658 5660 5662 5664 5666 5668 5670 5672 5674
5661 5660 5660 5660 5659 5657 5656 5659 5654 5652 5651 5650 5648 5646 5645 5643 5642 5640 5638 5637 5636 5635 5634 5634 5633 5633 5633 5634 5634 5635 5636 5636 5636 5637 5638 5639 5641 5643 5645 5647 5649 5651 5653 5655 5656 5658 5660 5662 5663